Zurück zum Katalog

STARLINK-36885

AktivKommunikationVLEO
NORAD 68049·PAYLOAD·🇺🇸 United States

Gestartet Mar 2, 2026 von Vandenberg Space Force Base

Loading…

Nächste Überflüge (nächste 24 Stunden)

TLE

AktuellSource: CelesTrak SupGP

Epoche: Sep 14, 2026, 21:38 UTC

1 68049C 26041K   26257.90187500  .00048070  00000+0  14202-2 0  2578
2 68049  53.1574 245.8067 0001164  90.3042 171.2390 15.34366894    19

Verfolge STARLINK-36885 in Echtzeit mit AllMySat

Download on the App Store